Time,TemperatureF,DewpointF,PressureIn,WindDirection,WindDirectionDegrees,WindSpeedMPH,WindSpeedGustMPH,Humidity,HourlyPrecipIn,Conditions,Clouds,dailyrainin,SoftwareType,DateUTC
2013-09-06 00:05:00,49.2,46.0,30.07,North,0,0.0,0.0,88,0.00,,,0.00,vanprod,2013-09-06 04:05:00,
2013-09-06 00:15:00,49.1,46.0,30.08,SW,218,0.0,0.0,89,0.00,,,0.00,vanprod,2013-09-06 04:15:00,
2013-09-06 00:25:00,49.1,46.0,30.08,SW,218,0.0,0.0,88,0.00,,,0.00,vanprod,2013-09-06 04:25:00,
2013-09-06 00:35:00,49.1,46.0,30.08,SW,218,0.0,0.0,88,0.00,,,0.00,vanprod,2013-09-06 04:35:00,
2013-09-06 00:45:00,49.1,45.0,30.08,SW,218,0.0,0.0,87,0.00,,,0.00,vanprod,2013-09-06 04:45:00,
2013-09-06 00:55:00,48.9,45.0,30.08,SW,218,0.0,0.0,86,0.00,,,0.00,vanprod,2013-09-06 04:55:00,
2013-09-06 01:05:00,48.9,45.0,30.09,SW,218,0.0,0.0,86,0.00,,,0.00,vanprod,2013-09-06 05:05:00,
2013-09-06 01:15:00,48.8,45.0,30.09,SW,218,0.0,0.0,87,0.00,,,0.00,vanprod,2013-09-06 05:15:00,
2013-09-06 01:25:00,48.5,44.0,30.09,SW,218,0.0,0.0,86,0.00,,,0.00,vanprod,2013-09-06 05:25:00,
2013-09-06 01:35:00,48.0,44.0,30.09,SW,218,0.0,0.0,86,0.00,,,0.00,vanprod,2013-09-06 05:35:00,
2013-09-06 01:45:00,47.9,44.0,30.09,SW,218,0.0,0.0,86,0.00,,,0.00,vanprod,2013-09-06 05:45:00,
2013-09-06 01:55:00,47.6,44.0,30.09,SW,218,0.0,0.0,87,0.00,,,0.00,vanprod,2013-09-06 05:55:00,
2013-09-06 02:05:00,47.4,44.0,30.09,SW,218,0.0,0.0,87,0.00,,,0.00,vanprod,2013-09-06 06:05:00,
2013-09-06 02:15:00,47.3,44.0,30.09,SW,218,0.0,0.0,88,0.00,,,0.00,vanprod,2013-09-06 06:15:00,
2013-09-06 02:25:00,47.0,43.0,30.09,SW,218,0.0,0.0,87,0.00,,,0.00,vanprod,2013-09-06 06:25:00,
2013-09-06 02:35:00,46.8,43.0,30.09,SW,218,0.0,0.0,87,0.00,,,0.00,vanprod,2013-09-06 06:35:00,
2013-09-06 02:45:00,46.4,43.0,30.09,SW,218,0.0,0.0,87,0.00,,,0.00,vanprod,2013-09-06 06:45:00,
2013-09-06 02:55:00,46.2,43.0,30.09,SW,218,0.0,0.0,88,0.00,,,0.00,vanprod,2013-09-06 06:55:00,
2013-09-06 03:05:00,46.1,43.0,30.10,SW,218,0.0,0.0,89,0.00,,,0.00,vanprod,2013-09-06 07:05:00,
2013-09-06 03:15:00,45.8,43.0,30.10,SW,218,0.0,0.0,89,0.00,,,0.00,vanprod,2013-09-06 07:15:00,
2013-09-06 03:25:00,45.7,43.0,30.10,SW,218,0.0,0.0,89,0.00,,,0.00,vanprod,2013-09-06 07:25:00,
2013-09-06 03:35:00,45.5,43.0,30.10,SW,218,0.0,0.0,90,0.00,,,0.00,vanprod,2013-09-06 07:35:00,
2013-09-06 03:45:00,45.4,43.0,30.10,SW,218,0.0,0.0,90,0.00,,,0.00,vanprod,2013-09-06 07:45:00,
2013-09-06 03:55:00,45.2,42.0,30.10,SW,218,0.0,0.0,90,0.00,,,0.00,vanprod,2013-09-06 07:55:00,
2013-09-06 04:05:00,45.2,43.0,30.11,SW,218,0.0,0.0,91,0.00,,,0.00,vanprod,2013-09-06 08:05:00,
2013-09-06 04:15:00,45.2,43.0,30.11,SW,218,0.0,0.0,91,0.00,,,0.00,vanprod,2013-09-06 08:15:00,
2013-09-06 04:25:00,45.1,43.0,30.11,SW,218,0.0,0.0,91,0.00,,,0.00,vanprod,2013-09-06 08:25:00,
2013-09-06 04:35:00,44.9,42.0,30.12,SW,218,0.0,0.0,91,0.00,,,0.00,vanprod,2013-09-06 08:35:00,
2013-09-06 04:45:00,44.6,42.0,30.12,SW,218,0.0,0.0,91,0.00,,,0.00,vanprod,2013-09-06 08:45:00,
2013-09-06 04:55:00,44.5,42.0,30.12,SW,218,0.0,0.0,91,0.00,,,0.00,vanprod,2013-09-06 08:55:00,
2013-09-06 05:05:00,44.5,42.0,30.12,SW,218,0.0,0.0,91,0.00,,,0.00,vanprod,2013-09-06 09:05:00,
2013-09-06 05:15:00,44.3,42.0,30.13,SW,218,0.0,0.0,92,0.00,,,0.00,vanprod,2013-09-06 09:15:00,
2013-09-06 05:25:00,44.2,42.0,30.13,SW,218,0.0,0.0,92,0.00,,,0.00,vanprod,2013-09-06 09:25:00,
2013-09-06 05:35:00,44.1,42.0,30.13,SW,218,0.0,0.0,92,0.00,,,0.00,vanprod,2013-09-06 09:35:00,
2013-09-06 05:45:00,44.1,42.0,30.13,SW,218,0.0,0.0,92,0.00,,,0.00,vanprod,2013-09-06 09:45:00,
2013-09-06 05:55:00,43.9,42.0,30.13,SW,218,0.0,0.0,92,0.00,,,0.00,vanprod,2013-09-06 09:55:00,
2013-09-06 06:05:00,43.8,42.0,30.14,SW,218,0.0,0.0,92,0.00,,,0.00,vanprod,2013-09-06 10:05:00,
2013-09-06 06:15:00,43.6,41.0,30.14,SW,218,0.0,0.0,92,0.00,,,0.00,vanprod,2013-09-06 10:15:00,
2013-09-06 06:25:00,43.5,41.0,30.14,SW,218,0.0,0.0,92,0.00,,,0.00,vanprod,2013-09-06 10:25:00,
2013-09-06 06:35:00,43.3,41.0,30.14,SW,218,0.0,0.0,92,0.00,,,0.00,vanprod,2013-09-06 10:35:00,
2013-09-06 06:45:00,43.2,41.0,30.15,SW,218,0.0,0.0,92,0.00,,,0.00,vanprod,2013-09-06 10:45:00,
2013-09-06 06:55:00,43.2,41.0,30.15,SW,218,0.0,0.0,93,0.00,,,0.00,vanprod,2013-09-06 10:55:00,
2013-09-06 07:05:00,43.3,41.0,30.15,SW,218,0.0,0.0,93,0.00,,,0.00,vanprod,2013-09-06 11:05:00,
2013-09-06 07:15:00,43.5,42.0,30.15,SW,218,0.0,0.0,93,0.00,,,0.00,vanprod,2013-09-06 11:15:00,
2013-09-06 07:25:00,43.6,42.0,30.15,SW,218,0.0,0.0,93,0.00,,,0.00,vanprod,2013-09-06 11:25:00,
2013-09-06 07:35:00,44.1,42.0,30.15,SW,218,0.0,0.0,94,0.00,,,0.00,vanprod,2013-09-06 11:35:00,
2013-09-06 07:45:00,44.5,43.0,30.15,SW,218,0.0,0.0,94,0.00,,,0.00,vanprod,2013-09-06 11:45:00,
2013-09-06 07:55:00,44.8,43.0,30.15,SW,218,0.0,0.0,94,0.00,,,0.00,vanprod,2013-09-06 11:55:00,
2013-09-06 08:05:00,45.4,44.0,30.16,SW,218,0.0,0.0,94,0.00,,,0.00,vanprod,2013-09-06 12:05:00,
2013-09-06 08:15:00,46.0,44.0,30.16,SW,218,0.0,0.0,94,0.00,,,0.00,vanprod,2013-09-06 12:15:00,
2013-09-06 08:25:00,46.5,45.0,30.16,SW,218,0.0,0.0,94,0.00,,,0.00,vanprod,2013-09-06 12:25:00,
2013-09-06 08:35:00,47.3,45.0,30.15,SW,218,0.0,0.0,93,0.00,,,0.00,vanprod,2013-09-06 12:35:00,
2013-09-06 08:45:00,48.0,46.0,30.16,SW,218,0.0,0.0,93,0.00,,,0.00,vanprod,2013-09-06 12:45:00,
2013-09-06 08:55:00,48.5,46.0,30.16,SW,218,0.0,0.0,92,0.00,,,0.00,vanprod,2013-09-06 12:55:00,
2013-09-06 09:05:00,49.1,46.0,30.16,SW,218,0.0,0.0,90,0.00,,,0.00,vanprod,2013-09-06 13:05:00,
2013-09-06 09:15:00,49.8,46.0,30.16,SW,218,0.0,0.0,88,0.00,,,0.00,vanprod,2013-09-06 13:15:00,
2013-09-06 09:25:00,51.0,47.0,30.16,SW,218,0.0,0.0,86,0.00,,,0.00,vanprod,2013-09-06 13:25:00,
2013-09-06 09:35:00,51.9,47.0,30.16,SW,218,0.0,0.0,84,0.00,,,0.00,vanprod,2013-09-06 13:35:00,
2013-09-06 09:45:00,52.6,47.0,30.16,SW,218,0.0,0.0,82,0.00,,,0.00,vanprod,2013-09-06 13:45:00,
2013-09-06 09:55:00,53.2,47.0,30.16,SSW,198,0.0,0.0,79,0.00,,,0.00,vanprod,2013-09-06 13:55:00,
2013-09-06 10:05:00,54.1,47.0,30.16,SSW,198,0.0,0.0,77,0.00,,,0.00,vanprod,2013-09-06 14:05:00,
2013-09-06 10:15:00,54.8,46.0,30.16,SSW,198,0.0,0.0,72,0.00,,,0.00,vanprod,2013-09-06 14:15:00,
2013-09-06 10:25:00,55.6,45.0,30.16,SSW,198,0.0,1.0,66,0.00,,,0.00,vanprod,2013-09-06 14:25:00,
2013-09-06 10:35:00,56.5,47.0,30.15,SSW,198,0.0,0.0,71,0.00,,,0.00,vanprod,2013-09-06 14:35:00,
2013-09-06 10:45:00,57.0,45.0,30.15,SSW,198,0.0,0.0,63,0.00,,,0.00,vanprod,2013-09-06 14:45:00,
2013-09-06 10:55:00,57.6,45.0,30.15,SSW,213,0.0,0.0,62,0.00,,,0.00,vanprod,2013-09-06 14:55:00,
2013-09-06 11:05:00,58.1,45.0,30.15,SSW,213,0.0,0.0,61,0.00,,,0.00,vanprod,2013-09-06 15:05:00,
2013-09-06 11:15:00,58.4,46.0,30.15,SSW,213,0.0,0.0,64,0.00,,,0.00,vanprod,2013-09-06 15:15:00,
2013-09-06 11:25:00,59.0,40.0,30.15,South,188,1.0,1.0,50,0.00,,,0.00,vanprod,2013-09-06 15:25:00,
2013-09-06 11:35:00,59.3,45.0,30.15,South,188,0.0,0.0,58,0.00,,,0.00,vanprod,2013-09-06 15:35:00,
2013-09-06 11:45:00,59.5,43.0,30.14,South,188,0.0,0.0,55,0.00,,,0.00,vanprod,2013-09-06 15:45:00,
2013-09-06 11:55:00,59.9,43.0,30.14,South,188,0.0,0.0,54,0.00,,,0.00,vanprod,2013-09-06 15:55:00,
2013-09-06 12:05:00,60.4,45.0,30.14,SSW,197,0.0,0.0,56,0.00,,,0.00,vanprod,2013-09-06 16:05:00,
2013-09-06 12:15:00,60.5,43.0,30.13,SSW,197,0.0,0.0,52,0.00,,,0.00,vanprod,2013-09-06 16:15:00,
2013-09-06 12:25:00,61.0,40.0,30.13,SSW,197,0.0,0.0,46,0.00,,,0.00,vanprod,2013-09-06 16:25:00,
2013-09-06 12:35:00,61.3,41.0,30.13,SSE,153,0.0,0.0,47,0.00,,,0.00,vanprod,2013-09-06 16:35:00,
2013-09-06 12:45:00,61.5,42.0,30.13,SSE,153,0.0,0.0,48,0.00,,,0.00,vanprod,2013-09-06 16:45:00,
2013-09-06 12:55:00,61.5,41.0,30.13,SSE,153,0.0,0.0,47,0.00,,,0.00,vanprod,2013-09-06 16:55:00,
2013-09-06 13:05:00,62.1,43.0,30.12,SE,140,0.0,0.0,50,0.00,,,0.00,vanprod,2013-09-06 17:05:00,
2013-09-06 13:15:00,62.3,42.0,30.12,SE,140,0.0,0.0,48,0.00,,,0.00,vanprod,2013-09-06 17:15:00,
2013-09-06 13:25:00,62.4,43.0,30.12,SE,140,0.0,0.0,49,0.00,,,0.00,vanprod,2013-09-06 17:25:00,
2013-09-06 13:35:00,62.4,46.0,30.11,South,169,0.0,0.0,55,0.00,,,0.00,vanprod,2013-09-06 17:35:00,
2013-09-06 13:45:00,62.6,44.0,30.11,South,169,0.0,0.0,50,0.00,,,0.00,vanprod,2013-09-06 17:45:00,
2013-09-06 13:55:00,62.6,45.0,30.11,South,169,0.0,0.0,52,0.00,,,0.00,vanprod,2013-09-06 17:55:00,
2013-09-06 14:05:00,62.9,46.0,30.10,SSW,202,0.0,0.0,53,0.00,,,0.00,vanprod,2013-09-06 18:05:00,
2013-09-06 14:15:00,63.1,45.0,30.09,SSW,202,0.0,0.0,52,0.00,,,0.00,vanprod,2013-09-06 18:15:00,
2013-09-06 14:25:00,63.4,48.0,30.09,SSE,153,0.0,0.0,57,0.00,,,0.00,vanprod,2013-09-06 18:25:00,
2013-09-06 14:35:00,63.4,47.0,30.09,SSE,153,0.0,0.0,55,0.00,,,0.00,vanprod,2013-09-06 18:35:00,
2013-09-06 14:45:00,63.5,46.0,30.08,SSE,153,0.0,0.0,53,0.00,,,0.00,vanprod,2013-09-06 18:45:00,
2013-09-06 14:55:00,63.7,44.0,30.08,South,187,0.0,0.0,49,0.00,,,0.00,vanprod,2013-09-06 18:55:00,
2013-09-06 15:05:00,63.9,44.0,30.07,South,187,0.0,0.0,49,0.00,,,0.00,vanprod,2013-09-06 19:05:00,
2013-09-06 15:15:00,63.9,47.0,30.07,South,187,0.0,0.0,54,0.00,,,0.00,vanprod,2013-09-06 19:15:00,
2013-09-06 15:25:00,64.0,46.0,30.07,South,187,0.0,0.0,51,0.00,,,0.00,vanprod,2013-09-06 19:25:00,
2013-09-06 15:35:00,64.2,45.0,30.06,South,187,0.0,0.0,50,0.00,,,0.00,vanprod,2013-09-06 19:35:00,
2013-09-06 15:45:00,64.3,45.0,30.05,South,187,0.0,0.0,50,0.00,,,0.00,vanprod,2013-09-06 19:45:00,
2013-09-06 15:55:00,64.3,48.0,30.05,SSE,148,0.0,0.0,56,0.00,,,0.00,vanprod,2013-09-06 19:55:00,
2013-09-06 16:05:00,64.3,49.0,30.05,SSE,148,0.0,0.0,58,0.00,,,0.00,vanprod,2013-09-06 20:05:00,
2013-09-06 16:15:00,64.2,48.0,30.05,SSE,148,0.0,0.0,55,0.00,,,0.00,vanprod,2013-09-06 20:15:00,
2013-09-06 16:25:00,64.2,47.0,30.05,SSE,148,0.0,0.0,54,0.00,,,0.00,vanprod,2013-09-06 20:25:00,
2013-09-06 16:35:00,64.2,50.0,30.04,ESE,108,0.0,0.0,59,0.00,,,0.00,vanprod,2013-09-06 20:35:00,
2013-09-06 16:45:00,64.0,45.0,30.04,ESE,108,0.0,0.0,50,0.00,,,0.00,vanprod,2013-09-06 20:45:00,
2013-09-06 16:55:00,64.2,46.0,30.04,SE,140,0.0,0.0,51,0.00,,,0.00,vanprod,2013-09-06 20:55:00,
2013-09-06 17:05:00,64.2,48.0,30.04,SE,140,0.0,0.0,56,0.00,,,0.00,vanprod,2013-09-06 21:05:00,
2013-09-06 17:15:00,64.0,48.0,30.04,SE,140,0.0,0.0,55,0.00,,,0.00,vanprod,2013-09-06 21:15:00,
2013-09-06 17:25:00,63.9,47.0,30.04,SE,140,0.0,0.0,53,0.00,,,0.00,vanprod,2013-09-06 21:25:00,
2013-09-06 17:35:00,63.9,48.0,30.04,SE,140,0.0,0.0,56,0.00,,,0.00,vanprod,2013-09-06 21:35:00,
2013-09-06 17:45:00,63.7,49.0,30.04,SE,140,0.0,0.0,59,0.00,,,0.00,vanprod,2013-09-06 21:45:00,
2013-09-06 17:55:00,63.4,49.0,30.04,SE,140,0.0,0.0,60,0.00,,,0.00,vanprod,2013-09-06 21:55:00,
2013-09-06 18:05:00,63.1,50.0,30.03,SSW,198,0.0,0.0,62,0.00,,,0.00,vanprod,2013-09-06 22:05:00,
2013-09-06 18:15:00,62.7,50.0,30.03,SSW,198,0.0,0.0,63,0.00,,,0.00,vanprod,2013-09-06 22:15:00,
2013-09-06 18:25:00,62.3,49.0,30.03,SSW,198,0.0,0.0,62,0.00,,,0.00,vanprod,2013-09-06 22:25:00,
2013-09-06 18:35:00,62.0,51.0,30.03,SW,223,0.0,0.0,66,0.00,,,0.00,vanprod,2013-09-06 22:35:00,
2013-09-06 18:45:00,61.6,52.0,30.03,SW,223,0.0,0.0,71,0.00,,,0.00,vanprod,2013-09-06 22:45:00,
2013-09-06 18:55:00,61.0,52.0,30.03,SW,223,0.0,0.0,71,0.00,,,0.00,vanprod,2013-09-06 22:55:00,
2013-09-06 19:05:00,60.4,51.0,30.02,SW,223,0.0,0.0,72,0.00,,,0.00,vanprod,2013-09-06 23:05:00,
2013-09-06 19:15:00,59.6,51.0,30.02,SW,223,0.0,0.0,73,0.00,,,0.00,vanprod,2013-09-06 23:15:00,
2013-09-06 19:25:00,58.7,51.0,30.02,SW,223,0.0,0.0,74,0.00,,,0.00,vanprod,2013-09-06 23:25:00,
2013-09-06 19:35:00,58.1,50.0,30.02,SW,223,0.0,0.0,75,0.00,,,0.00,vanprod,2013-09-06 23:35:00,
2013-09-06 19:45:00,57.6,51.0,30.02,SW,223,0.0,0.0,78,0.00,,,0.00,vanprod,2013-09-06 23:45:00,
2013-09-06 19:55:00,57.3,51.0,30.02,SW,223,0.0,0.0,79,0.00,,,0.00,vanprod,2013-09-06 23:55:00,
2013-09-06 20:05:00,56.9,51.0,30.02,SW,223,0.0,0.0,79,0.00,,,0.00,vanprod,2013-09-07 00:05:00,
2013-09-06 20:15:00,56.6,51.0,30.02,SW,223,0.0,0.0,80,0.00,,,0.00,vanprod,2013-09-07 00:15:00,
2013-09-06 20:25:00,56.2,50.0,30.02,SW,223,0.0,0.0,80,0.00,,,0.00,vanprod,2013-09-07 00:25:00,
2013-09-06 20:35:00,55.6,49.0,30.02,SW,223,0.0,0.0,79,0.00,,,0.00,vanprod,2013-09-07 00:35:00,
2013-09-06 20:45:00,55.4,50.0,30.02,SW,223,0.0,0.0,81,0.00,,,0.00,vanprod,2013-09-07 00:45:00,
2013-09-06 20:55:00,55.3,50.0,30.02,SW,223,0.0,0.0,82,0.00,,,0.00,vanprod,2013-09-07 00:55:00,
2013-09-06 21:05:00,55.1,50.0,30.02,SW,223,0.0,0.0,83,0.00,,,0.00,vanprod,2013-09-07 01:05:00,
2013-09-06 21:15:00,54.8,49.0,30.02,SW,223,0.0,0.0,82,0.00,,,0.00,vanprod,2013-09-07 01:15:00,
2013-09-06 21:25:00,54.5,49.0,30.02,SW,223,0.0,0.0,81,0.00,,,0.00,vanprod,2013-09-07 01:25:00,
2013-09-06 21:35:00,54.2,49.0,30.01,SW,223,0.0,0.0,81,0.00,,,0.00,vanprod,2013-09-07 01:35:00,
2013-09-06 21:45:00,54.1,49.0,30.01,SW,223,0.0,0.0,82,0.00,,,0.00,vanprod,2013-09-07 01:45:00,
2013-09-06 21:55:00,53.9,49.0,30.01,SW,223,0.0,0.0,82,0.00,,,0.00,vanprod,2013-09-07 01:55:00,
2013-09-06 22:05:00,53.8,49.0,30.02,SW,223,0.0,0.0,83,0.00,,,0.00,vanprod,2013-09-07 02:05:00,
2013-09-06 22:15:00,53.5,48.0,30.01,SW,223,0.0,0.0,82,0.00,,,0.00,vanprod,2013-09-07 02:15:00,
2013-09-06 22:25:00,53.3,48.0,30.01,SW,223,0.0,0.0,82,0.00,,,0.00,vanprod,2013-09-07 02:25:00,
2013-09-06 22:35:00,53.3,48.0,30.01,SW,223,0.0,0.0,83,0.00,,,0.00,vanprod,2013-09-07 02:35:00,
2013-09-06 22:45:00,53.1,48.0,30.00,SW,223,0.0,0.0,83,0.00,,,0.00,vanprod,2013-09-07 02:45:00,
2013-09-06 22:55:00,52.9,48.0,30.00,SW,223,0.0,0.0,83,0.00,,,0.00,vanprod,2013-09-07 02:55:00,
2013-09-06 23:05:00,52.8,48.0,30.00,SW,223,0.0,0.0,83,0.00,,,0.00,vanprod,2013-09-07 03:05:00,
2013-09-06 23:15:00,52.8,48.0,30.00,SW,223,0.0,0.0,84,0.00,,,0.00,vanprod,2013-09-07 03:15:00,
2013-09-06 23:25:00,52.6,48.0,30.00,SW,223,0.0,0.0,84,0.00,,,0.00,vanprod,2013-09-07 03:25:00,
2013-09-06 23:35:00,52.3,48.0,30.00,SW,223,0.0,0.0,84,0.00,,,0.00,vanprod,2013-09-07 03:35:00,
2013-09-06 23:45:00,52.3,48.0,30.00,SW,223,0.0,0.0,86,0.00,,,0.00,vanprod,2013-09-07 03:45:00,
2013-09-06 23:55:00,52.2,48.0,30.00,SW,223,0.0,0.0,86,0.00,,,0.00,vanprod,2013-09-07 03:55:00,